Location: Forli
(44.2227°N, 12.0407°E)
Time: 00:59:30
(UTC+02:00)

PCSat - Pass Details

Date: 15 April 2026
Orbit: 781 x 790 km, 67.1° (Epoch: 19 May)

Event Time Altitude Azimuth Distance (km) Brightness Sun altitude
Rises 01:15:07 0° 327° (NNW) 3,293 13.5 -36.1°
Reaches altitude 10° 01:17:32 10° 326° (NW) 2,361 12.6 -36.1°
Enters shadow 01:19:42 25° 323° (NW) 1,563 11.4 -36.1°
